Big Rapids, MI

3:29 AM EDT on August 25, 2019 (GMT -0400)
Roben-Hood

Weather History for KRQB - May, 2019

Change the Weather History Date:

Sunday, May 26, 2019

  Actual Average Record
Temperature  
Mean Temperature 62 °F -  
Max Temperature 73 °F 71 °F 88 °F (1978)
Min Temperature 52 °F 45 °F 33 °F (1974)
Degree Days  
Heating Degree Days 2    
Growing Degree Days 12 (Base 50)    
Moisture  
Dew Point 50 °F    
Average Humidity 62    
Maximum Humidity 90    
Minimum Humidity 36    
Precipitation  
Precipitation 0.00 in - - ()
Sea Level Pressure  
Sea Level Pressure 30.02 in    
Wind  
Wind Speed 5 mph (NNW)    
Max Wind Speed 12 mph    
Max Gust Speed 18 mph    
Visibility 10 miles    
Events      
Averages and records for this station are not official NWS values.
T = Trace of Precipitation, MM = Missing Value Source: NWS Daily Summary

Daily Weather History Graph

Daily Weather History Graph

Search for Another Location

Airport or City:

Astronomy

May. 26, 2019 Rise Set
Actual Time 6:07 AM EDT 9:11 PM EDT
Civil Twilight 5:32 AM EDT 9:46 PM EDT
Nautical Twilight 4:48 AM EDT 10:30 PM EDT
Astronomical Twilight 3:55 AM EDT 11:23 PM EDT
Moon 2:39 AM EDT (5/26) 1:08 PM EDT (5/26)
Length of Visible Light 16h 13m
Length of Day
15h 04m
Waning Gibbous, 50% of the Moon is Illuminated
May 26
Waning Gibbous
May 26
Last Quarter
Jun 3
New
Jun 10
First Quarter
Jun 17
Full

Hourly Weather History & Observations

Time (EDT) Temp. Dew Point Humidity Pressure Visibility Wind Dir Wind Speed Gust Speed Precip Events Conditions
12:15 AM 67.1 °F 60.4 °F 79% 29.90 in 10.0 mi WSW 11.5 mph - N/A   Scattered Clouds
12:16 AM 67.1 °F 60.3 °F 79% 29.90 in 10.0 mi WSW 10.4 mph - N/A   Scattered Clouds
12:35 AM 66.4 °F 59.9 °F 80% 29.91 in 10.0 mi West 9.2 mph - N/A   Scattered Clouds
12:55 AM 65.8 °F 59.5 °F 80% 29.91 in 10.0 mi West 8.1 mph - N/A   Scattered Clouds
1:15 AM 65.3 °F 59.4 °F 81% 29.91 in 10.0 mi West 5.8 mph - N/A   Clear
1:16 AM 65.3 °F 59.4 °F 81% 29.92 in 10.0 mi West 5.8 mph - N/A   Clear
1:35 AM 64.4 °F 59.0 °F 83% 29.92 in 10.0 mi West 5.8 mph - N/A   Clear
1:36 AM 64.4 °F 58.8 °F 82% 29.92 in 10.0 mi WNW 5.8 mph - N/A   Clear
1:55 AM 63.7 °F 58.5 °F 83% 29.93 in 10.0 mi West 4.6 mph - N/A   Clear
2:15 AM 62.8 °F 58.1 °F 85% 29.94 in 10.0 mi WNW 4.6 mph - N/A   Clear
2:35 AM 62.1 °F 58.1 °F 87% 29.95 in 10.0 mi NW 4.6 mph - N/A   Clear
2:36 AM 62.1 °F 57.9 °F 86% 29.95 in 10.0 mi WNW 4.6 mph - N/A   Clear
2:55 AM 61.0 °F 56.7 °F 86% 29.95 in 10.0 mi NNW 6.9 mph - N/A   Clear
3:15 AM 59.9 °F 53.2 °F 79% 29.96 in 10.0 mi NNW 5.8 mph - N/A   Clear
3:35 AM 59.5 °F 49.8 °F 70% 29.96 in 10.0 mi NNW 3.5 mph - N/A   Clear
3:36 AM 59.5 °F 49.8 °F 70% 29.96 in 10.0 mi NNW 3.5 mph - N/A   Clear
3:55 AM 58.3 °F 47.8 °F 68% 29.95 in 10.0 mi Calm Calm - N/A   Clear
4:15 AM 58.5 °F 47.3 °F 66% 29.95 in 10.0 mi Calm Calm - N/A   Clear
4:35 AM 55.6 °F 49.1 °F 79% 29.95 in 10.0 mi Calm Calm - N/A   Clear
4:55 AM 57.0 °F 47.3 °F 70% 29.96 in 10.0 mi Calm Calm - N/A   Clear
4:56 AM 57.0 °F 47.3 °F 70% 29.96 in 10.0 mi Calm Calm - N/A   Clear
5:15 AM 55.0 °F 48.6 °F 79% 29.97 in 10.0 mi Calm Calm - N/A   Clear
5:16 AM 54.9 °F 48.6 °F 79% 29.97 in 10.0 mi Calm Calm - N/A   Clear
5:35 AM 54.0 °F 49.1 °F 84% 29.98 in 10.0 mi Calm Calm - N/A   Clear
5:55 AM 52.3 °F 48.6 °F 87% 29.99 in 10.0 mi Calm Calm - N/A   Scattered Clouds
5:56 AM 52.5 °F 48.7 °F 87% 29.99 in 10.0 mi Calm Calm - N/A   Scattered Clouds
6:15 AM 53.1 °F 49.3 °F 87% 30.00 in 10.0 mi Calm Calm - N/A   Mostly Cloudy
6:16 AM 53.1 °F 49.5 °F 88% 30.00 in 10.0 mi Calm Calm - N/A   Overcast
6:35 AM 53.8 °F 50.0 °F 87% 30.01 in 10.0 mi Calm Calm - N/A   Overcast
6:55 AM 53.8 °F 50.0 °F 87% 30.03 in 10.0 mi Calm Calm - N/A   Overcast
6:56 AM 53.6 °F 50.0 °F 88% 30.03 in 10.0 mi Calm Calm - N/A   Overcast
7:15 AM 53.8 °F 50.9 °F 90% 30.03 in 10.0 mi Calm Calm - N/A   Overcast
7:16 AM 53.8 °F 50.9 °F 90% 30.03 in 10.0 mi Calm Calm - N/A   Overcast
7:35 AM 54.9 °F 51.8 °F 89% 30.04 in 10.0 mi Calm Calm - N/A   Overcast
7:55 AM 55.4 °F 52.3 °F 89% 30.03 in 10.0 mi Calm Calm - N/A   Mostly Cloudy
8:15 AM 56.3 °F 51.4 °F 84% 30.03 in 10.0 mi Calm Calm - N/A   Scattered Clouds
8:16 AM 56.3 °F 51.4 °F 84% 30.03 in 10.0 mi Calm Calm - N/A   Scattered Clouds
8:35 AM 57.7 °F 50.2 °F 76% 30.04 in 10.0 mi Calm Calm - N/A   Clear
8:55 AM 59.2 °F 50.2 °F 72% 30.04 in 10.0 mi Calm Calm - N/A   Clear
9:15 AM 59.9 °F 50.0 °F 70% 30.04 in 10.0 mi Calm Calm - N/A   Clear
9:35 AM 61.0 °F 50.4 °F 68% 30.05 in 10.0 mi Calm Calm - N/A   Clear
9:36 AM 61.0 °F 50.5 °F 68% 30.05 in 10.0 mi Calm Calm - N/A   Clear
9:55 AM 61.9 °F 50.2 °F 65% 30.05 in 10.0 mi North 3.5 mph - N/A   Clear
9:56 AM 61.9 °F 50.2 °F 65% 30.05 in 10.0 mi NNW 4.6 mph - N/A   Clear
10:15 AM 63.3 °F 49.5 °F 61% 30.05 in 10.0 mi NNW 5.8 mph - N/A   Clear
10:35 AM 63.7 °F 49.8 °F 61% 30.05 in 10.0 mi North 4.6 mph - N/A   Clear
10:36 AM 63.9 °F 50.0 °F 61% 30.05 in 10.0 mi North 4.6 mph - N/A   Clear
10:55 AM 64.8 °F 50.0 °F 59% 30.06 in 10.0 mi Calm Calm - N/A   Clear
10:56 AM 64.8 °F 49.8 °F 58% 30.05 in 10.0 mi Calm Calm - N/A   Clear
11:15 AM 65.3 °F 49.3 °F 56% 30.05 in 10.0 mi SSE 4.6 mph - N/A   Clear
11:16 AM 65.3 °F 49.3 °F 56% 30.05 in 10.0 mi SSW 4.6 mph - N/A   Clear
11:35 AM 65.3 °F 48.6 °F 55% 30.06 in 10.0 mi NNW 3.5 mph - N/A   Clear
11:55 AM 66.2 °F 48.0 °F 52% 30.06 in 10.0 mi NNE 4.6 mph - N/A   Clear
12:15 PM 66.4 °F 47.1 °F 50% 30.06 in 10.0 mi East 3.5 mph - N/A   Clear
12:16 PM 66.4 °F 46.8 °F 49% 30.06 in 10.0 mi SSW 4.6 mph - N/A   Clear
12:35 PM 67.1 °F 46.9 °F 48% 30.07 in 10.0 mi NNE 3.5 mph - N/A   Clear
12:55 PM 67.3 °F 45.7 °F 46% 30.06 in 10.0 mi West 4.6 mph - N/A   Clear
1:15 PM 68.0 °F 46.9 °F 47% 30.06 in 10.0 mi North 5.8 mph - N/A   Clear
1:16 PM 68.0 °F 46.2 °F 46% 30.06 in 10.0 mi North 5.8 mph - N/A   Clear
1:35 PM 68.2 °F 46.0 °F 45% 30.05 in 10.0 mi Calm Calm - N/A   Clear
1:55 PM 68.4 °F 45.7 °F 44% 30.06 in 10.0 mi NNW 4.6 mph - N/A   Clear
1:56 PM 68.5 °F 45.5 °F 44% 30.06 in 10.0 mi West 4.6 mph - N/A   Clear
2:15 PM 69.4 °F 46.8 °F 44% 30.05 in 10.0 mi East 3.5 mph - N/A   Clear
2:35 PM 70.3 °F 46.9 °F 43% 30.05 in 10.0 mi South 4.6 mph - N/A   Scattered Clouds
2:55 PM 70.9 °F 47.3 °F 43% 30.05 in 10.0 mi NE 3.5 mph - N/A   Scattered Clouds
2:56 PM 70.9 °F 46.8 °F 42% 30.05 in 10.0 mi NNE 3.5 mph - N/A   Scattered Clouds
3:15 PM 72.3 °F 47.1 °F 41% 30.06 in 10.0 mi Calm Calm - N/A   Clear
3:16 PM 72.3 °F 46.9 °F 40% 30.06 in 10.0 mi NW 3.5 mph - N/A   Clear
3:35 PM 71.1 °F 48.6 °F 45% 30.06 in 10.0 mi North 9.2 mph - N/A   Scattered Clouds
3:55 PM 72.1 °F 47.7 °F 42% 30.05 in 10.0 mi ENE 4.6 mph - N/A   Scattered Clouds
3:56 PM 72.3 °F 47.8 °F 42% 30.05 in 10.0 mi NE 5.8 mph - N/A   Scattered Clouds
4:15 PM 72.7 °F 48.4 °F 42% 30.05 in 10.0 mi NNW 6.9 mph - N/A   Scattered Clouds
4:16 PM 72.7 °F 48.2 °F 42% 30.05 in 10.0 mi North 5.8 mph - N/A   Scattered Clouds
4:35 PM 73.6 °F 46.9 °F 39% 30.04 in 10.0 mi North 3.5 mph - N/A   Scattered Clouds
4:55 PM 72.7 °F 46.9 °F 40% 30.04 in 10.0 mi ENE 3.5 mph - N/A   Scattered Clouds
4:56 PM 72.7 °F 46.9 °F 40% 30.04 in 10.0 mi ENE 3.5 mph - N/A   Scattered Clouds
5:15 PM 73.8 °F 48.4 °F 41% 30.04 in 10.0 mi North 8.1 mph - N/A   Mostly Cloudy
5:16 PM 73.8 °F 48.0 °F 40% 30.04 in 10.0 mi North 5.8 mph - N/A   Mostly Cloudy
5:35 PM 73.6 °F 47.7 °F 40% 30.04 in 10.0 mi North 4.6 mph - N/A   Scattered Clouds
5:55 PM 73.0 °F 46.8 °F 39% 30.03 in 10.0 mi NNE 6.9 mph - N/A   Clear
6:15 PM 72.5 °F 46.6 °F 40% 30.03 in 10.0 mi Calm Calm - N/A   Mostly Cloudy
6:16 PM 72.5 °F 46.6 °F 40% 30.03 in 10.0 mi Calm Calm - N/A   Mostly Cloudy
6:35 PM 71.8 °F 46.9 °F 41% 30.03 in 10.0 mi North 4.6 mph - N/A   Overcast
6:55 PM 72.1 °F 43.7 °F 36% 30.03 in 10.0 mi North 6.9 mph - N/A   Mostly Cloudy
7:15 PM 71.8 °F 45.0 °F 38% 30.02 in 10.0 mi Calm Calm - N/A   Scattered Clouds
7:35 PM 72.7 °F 45.5 °F 38% 30.02 in 10.0 mi North 4.6 mph - N/A   Mostly Cloudy
7:36 PM 72.7 °F 45.5 °F 38% 30.02 in 10.0 mi North 3.5 mph - N/A   Mostly Cloudy
7:55 PM 70.7 °F 47.5 °F 44% 30.03 in 10.0 mi NW 11.5 mph 18.4 mph N/A   Mostly Cloudy
7:56 PM 70.7 °F 47.5 °F 44% 30.03 in 10.0 mi NW 10.4 mph 18.4 mph N/A   Mostly Cloudy
8:15 PM 69.3 °F 47.3 °F 45% 30.03 in 10.0 mi North 10.4 mph 16.1 mph N/A   Scattered Clouds
8:35 PM 68.2 °F 46.0 °F 45% 30.03 in 10.0 mi North 8.1 mph - N/A   Clear
8:36 PM 68.2 °F 46.2 °F 45% 30.03 in 10.0 mi North 8.1 mph - N/A   Clear
8:55 PM 66.2 °F 47.3 °F 51% 30.04 in 10.0 mi North 6.9 mph - N/A   Clear
8:56 PM 66.0 °F 47.3 °F 51% 30.04 in 10.0 mi North 5.8 mph - N/A   Clear
9:15 PM 65.3 °F 47.7 °F 53% 30.04 in 10.0 mi NNW 4.6 mph - N/A   Clear
9:35 PM 64.4 °F 48.2 °F 56% 30.04 in 10.0 mi NW 5.8 mph - N/A   Clear
9:55 PM 63.0 °F 48.4 °F 59% 30.04 in 10.0 mi NW 5.8 mph - N/A   Clear
10:15 PM 61.7 °F 48.7 °F 62% 30.05 in 10.0 mi NW 5.8 mph - N/A   Clear
10:16 PM 61.7 °F 48.7 °F 62% 30.05 in 10.0 mi NW 5.8 mph - N/A   Clear
10:35 PM 61.7 °F 48.7 °F 62% 30.06 in 10.0 mi NW 3.5 mph - N/A   Clear
10:55 PM 61.0 °F 48.6 °F 64% 30.07 in 10.0 mi Calm Calm - N/A   Clear
11:15 PM 59.0 °F 48.7 °F 69% 30.08 in 10.0 mi Calm Calm - N/A   Clear
11:16 PM 58.8 °F 48.7 °F 69% 30.08 in 10.0 mi Calm Calm - N/A   Clear
11:35 PM 59.4 °F 48.2 °F 67% 30.08 in 10.0 mi Calm Calm - N/A   Clear
11:55 PM 56.7 °F 48.6 °F 74% 30.09 in 10.0 mi Calm Calm - N/A   Clear